TimeMDT,TemperatureF,Dew PointF,Humidity,Sea Level PressureIn,VisibilityMPH,Wind Direction,Wind SpeedMPH,Gust SpeedMPH,PrecipitationIn,Events,Conditions,WindDirDegrees,DateUTC
12:53 AM,28.0,21.0,75,30.31,10.0,East,4.6,-,N/A,,Overcast,80,2012-10-05 06:53:00
1:53 AM,28.0,19.9,72,30.32,10.0,ENE,4.6,-,N/A,,Overcast,60,2012-10-05 07:53:00
2:53 AM,27.0,21.0,78,30.32,10.0,ENE,3.5,-,N/A,,Overcast,70,2012-10-05 08:53:00
3:53 AM,27.0,21.0,78,30.32,10.0,NE,4.6,-,N/A,,Overcast,40,2012-10-05 09:53:00
4:42 AM,26.6,21.2,80,30.25,2.5,Calm,Calm,-,0.00,Snow,Light Snow,0,2012-10-05 10:42:00
4:53 AM,26.1,23.0,88,30.33,2.5,Calm,Calm,-,0.00,Snow,Light Snow,0,2012-10-05 10:53:00
5:07 AM,26.6,23.0,86,30.25,1.2,South,3.5,-,0.00,Snow,Light Snow,170,2012-10-05 11:07:00
5:21 AM,26.6,24.8,93,30.26,1.0,Calm,Calm,-,0.01,Snow,Light Snow,0,2012-10-05 11:21:00
5:53 AM,26.1,24.1,92,30.35,1.2,Calm,Calm,-,0.03,Snow,Light Snow,0,2012-10-05 11:53:00
6:10 AM,26.6,24.8,93,30.26,1.5,Calm,Calm,-,0.01,Snow,Light Snow,0,2012-10-05 12:10:00
6:16 AM,26.6,24.8,93,30.26,3.0,Calm,Calm,-,0.01,Snow,Light Snow,0,2012-10-05 12:16:00
6:53 AM,26.1,24.1,92,30.36,3.0,Calm,Calm,-,0.01,Snow,Light Snow,0,2012-10-05 12:53:00
7:20 AM,26.6,24.8,93,30.26,1.8,Calm,Calm,-,0.00,Snow,Light Snow,0,2012-10-05 13:20:00
7:32 AM,26.6,24.8,93,30.27,1.2,Calm,Calm,-,0.01,Snow,Light Snow,0,2012-10-05 13:32:00
7:39 AM,26.6,24.8,93,30.27,1.5,East,3.5,-,0.01,Snow,Light Snow,90,2012-10-05 13:39:00
7:50 AM,26.6,24.8,93,30.27,1.5,East,3.5,-,0.01,Snow,Light Snow,100,2012-10-05 13:50:00
7:53 AM,27.0,24.1,89,30.37,1.5,ESE,3.5,-,0.01,Snow,Light Snow,110,2012-10-05 13:53:00
8:07 AM,26.6,24.8,93,30.27,2.5,East,4.6,-,0.00,Snow,Light Snow,90,2012-10-05 14:07:00
8:24 AM,26.6,24.8,93,30.27,2.5,East,3.5,-,0.00,Snow,Light Snow,90,2012-10-05 14:24:00
8:31 AM,26.6,24.8,93,30.27,3.0,East,3.5,-,0.00,Snow,Light Snow,80,2012-10-05 14:31:00
8:49 AM,26.6,24.8,93,30.28,6.0,East,4.6,-,0.00,Snow,Light Snow,90,2012-10-05 14:49:00
8:53 AM,27.0,24.1,89,30.38,7.0,East,4.6,-,0.00,Snow,Light Snow,90,2012-10-05 14:53:00
9:26 AM,26.6,24.8,93,30.28,2.0,East,5.8,-,0.00,Snow,Light Snow,90,2012-10-05 15:26:00
9:46 AM,26.6,24.8,93,30.29,2.5,East,5.8,-,0.00,Snow,Light Snow,100,2012-10-05 15:46:00
9:53 AM,27.0,23.0,85,30.40,2.5,East,6.9,-,0.00,Snow,Light Snow,100,2012-10-05 15:53:00
10:03 AM,26.6,24.8,93,30.29,1.8,East,5.8,-,0.01,Snow,Light Snow,90,2012-10-05 16:03:00
10:11 AM,26.6,24.8,93,30.29,2.0,East,5.8,-,0.01,Snow,Light Snow,90,2012-10-05 16:11:00
10:24 AM,26.6,24.8,93,30.29,3.0,East,4.6,-,0.01,Snow,Light Snow,80,2012-10-05 16:24:00
10:34 AM,26.6,24.8,93,30.29,2.5,ENE,3.5,-,0.01,Snow,Light Snow,70,2012-10-05 16:34:00
10:49 AM,28.4,24.8,86,30.29,2.5,ESE,4.6,-,0.01,Snow,Light Snow,120,2012-10-05 16:49:00
10:53 AM,28.0,24.1,85,30.39,2.5,East,4.6,-,0.01,Snow,Light Snow,100,2012-10-05 16:53:00
11:14 AM,28.4,24.8,86,30.29,2.0,East,5.8,-,0.00,Snow,Light Snow,100,2012-10-05 17:14:00
11:20 AM,28.4,24.8,86,30.29,1.5,East,3.5,-,0.00,Snow,Light Snow,100,2012-10-05 17:20:00
11:34 AM,28.4,24.8,86,30.29,2.0,East,4.6,-,0.00,Snow,Light Snow,80,2012-10-05 17:34:00
11:45 AM,28.4,24.8,86,30.29,2.0,SE,4.6,-,0.00,Snow,Light Snow,140,2012-10-05 17:45:00
11:53 AM,28.0,24.1,85,30.40,2.0,ESE,3.5,-,0.00,Snow,Light Snow,110,2012-10-05 17:53:00
12:31 PM,30.2,24.8,80,30.29,1.5,Calm,Calm,-,0.01,Snow,Light Snow,0,2012-10-05 18:31:00
12:53 PM,28.9,25.0,85,30.38,1.0,ESE,3.5,-,0.01,Snow,Light Snow,110,2012-10-05 18:53:00
1:03 PM,28.4,24.8,86,30.28,1.0,East,3.5,-,0.01,Snow,Light Snow,90,2012-10-05 19:03:00
1:18 PM,28.4,24.8,86,30.28,1.0,SSE,3.5,-,0.01,Snow,Light Snow,150,2012-10-05 19:18:00
1:26 PM,28.4,24.8,86,30.28,0.5,Calm,Calm,-,0.02,Fog-Snow,Snow,0,2012-10-05 19:26:00
1:33 PM,28.4,24.8,86,30.28,0.2,ESE,3.5,-,0.03,Fog-Snow,Snow,120,2012-10-05 19:33:00
1:46 PM,28.4,24.8,86,30.27,0.5,South,4.6,-,0.05,Fog-Snow,Snow,170,2012-10-05 19:46:00
1:53 PM,28.0,25.0,88,30.38,0.5,South,3.5,-,0.06,Fog-Snow,Snow,180,2012-10-05 19:53:00
2:26 PM,28.4,24.8,86,30.27,0.5,Calm,Calm,-,0.02,Fog-Snow,Snow,0,2012-10-05 20:26:00
2:53 PM,28.0,25.0,88,30.37,0.8,South,4.6,-,0.04,Snow,Light Snow,190,2012-10-05 20:53:00
3:01 PM,28.4,24.8,86,30.26,0.8,Variable,3.5,-,0.00,Snow,Light Snow,0,2012-10-05 21:01:00
3:37 PM,28.4,26.6,93,30.26,0.2,SSE,4.6,-,0.04,Fog-Snow,Light Snow,150,2012-10-05 21:37:00
3:53 PM,28.0,25.0,88,30.37,0.5,SE,4.6,-,0.06,Fog-Snow,Snow,140,2012-10-05 21:53:00
4:11 PM,28.4,26.6,93,30.26,0.2,SSE,3.5,-,0.03,Fog-Snow,Snow,150,2012-10-05 22:11:00
4:53 PM,28.0,26.1,92,30.39,0.2,East,3.5,-,0.15,Fog-Snow,Snow,100,2012-10-05 22:53:00
5:40 PM,28.4,24.8,86,30.27,1.0,Calm,Calm,-,0.07,Snow,Light Snow,0,2012-10-05 23:40:00
5:48 PM,28.4,24.8,86,30.28,0.8,Calm,Calm,-,0.07,Snow,Light Snow,0,2012-10-05 23:48:00
5:53 PM,28.0,25.0,88,30.39,1.0,NE,3.5,-,0.07,Snow,Light Snow,50,2012-10-05 23:53:00
6:09 PM,28.4,24.8,86,30.28,0.8,Calm,Calm,-,0.01,Snow,Light Snow,0,2012-10-06 00:09:00
6:33 PM,26.6,24.8,93,30.28,1.0,ENE,3.5,-,0.02,Snow,Light Snow,60,2012-10-06 00:33:00
6:53 PM,26.1,24.1,92,30.41,0.8,ENE,6.9,-,0.04,Snow,Light Snow,70,2012-10-06 00:53:00
7:03 PM,26.6,24.8,93,30.29,0.8,East,4.6,-,0.01,Snow,Light Snow,80,2012-10-06 01:03:00
7:28 PM,26.6,23.0,86,30.28,1.0,ENE,4.6,-,0.03,Snow,Light Snow,60,2012-10-06 01:28:00
7:45 PM,26.6,23.0,86,30.29,1.2,NE,3.5,-,0.04,Snow,Light Snow,50,2012-10-06 01:45:00
7:53 PM,26.1,23.0,88,30.40,2.0,NNE,3.5,-,0.05,Snow,Light Snow,30,2012-10-06 01:53:00
8:03 PM,26.6,23.0,86,30.29,5.0,Calm,Calm,-,0.00,Snow,Light Snow,0,2012-10-06 02:03:00
8:53 PM,26.1,23.0,88,30.40,6.0,Calm,Calm,-,0.00,Snow,Light Snow,0,2012-10-06 02:53:00
9:09 PM,26.6,23.0,86,30.28,2.5,Calm,Calm,-,0.00,Snow,Light Snow,0,2012-10-06 03:09:00
9:17 PM,26.6,23.0,86,30.28,4.0,Calm,Calm,-,0.01,Snow,Light Snow,0,2012-10-06 03:17:00
9:40 PM,24.8,23.0,93,30.28,6.0,Calm,Calm,-,0.01,Snow,Light Snow,0,2012-10-06 03:40:00
9:53 PM,25.0,23.0,92,30.41,8.0,Calm,Calm,-,0.01,,Overcast,0,2012-10-06 03:53:00
10:53 PM,25.0,23.0,92,30.40,8.0,North,3.5,-,0.00,Snow,Light Snow,10,2012-10-06 04:53:00
11:53 PM,26.1,23.0,88,30.40,7.0,Calm,Calm,-,0.00,Snow,Light Snow,0,2012-10-06 05:53:00